Track ONEWEB-0456 now! 10-day predictions ONEWEB-0456 is classified as:
1 51646U 22012AA 22228.25002315 .00000074 00000-0 17605-3 0 9996 2 51646 87.8827 314.8161 0001988 90.1503 227.7993 13.10372615 27166